| time (UTC) | temp C | wind direction | speed KPH | gust KPH | rain 1hr cm | rain 24hr cm | rain mn cm | humidity % | barometer mb |
| 20260503225516 | 15 | 256 | 3.2 | 9.7 | 0.00 | 0.03 | 0.03 | 29 | 1010.6 |
| 20260503224516 | 15 | 264 | 3.2 | 8.0 | 0.00 | 0.03 | 0.03 | 31 | 1010.7 |
| 20260503223536 | 15 | 258 | 3.2 | 9.7 | 0.00 | 0.03 | 0.03 | 29 | 1010.7 |
| 20260503222517 | 16 | 256 | 4.8 | 11.3 | 0.00 | 0.03 | 0.03 | 29 | 1010.6 |
| 20260503221516 | 16 | 253 | 4.8 | 8.0 | 0.00 | 0.03 | 0.03 | 29 | 1010.6 |
| 20260503220537 | 16 | 264 | 4.8 | 8.0 | 0.00 | 0.03 | 0.03 | 30 | 1010.6 |
| 20260503215517 | 16 | 249 | 6.4 | 14.5 | 0.00 | 0.03 | 0.03 | 28 | 1010.6 |
| 20260503214517 | 16 | 247 | 6.4 | 14.5 | 0.00 | 0.03 | 0.03 | 29 | 1010.6 |
| 20260503213517 | 16 | 273 | 3.2 | 8.0 | 0.00 | 0.03 | 0.03 | 30 | 1010.6 |
| 20260503212535 | 16 | 306 | 3.2 | 6.4 | 0.00 | 0.03 | 0.03 | 36 | 1010.6 |
| 20260503211516 | 16 | 269 | 4.8 | 11.3 | 0.00 | 0.03 | 0.03 | 33 | 1010.6 |
| 20260503210516 | 16 | 266 | 6.4 | 20.9 | 0.00 | 0.03 | 0.03 | 32 | 1010.6 |
| 20260503205516 | 16 | 269 | 6.4 | 12.9 | 0.00 | 0.03 | 0.03 | 35 | 1010.6 |
| 20260503204515 | 15 | 284 | 3.2 | 12.9 | 0.00 | 0.03 | 0.03 | 33 | 1010.7 |
| 20260503203515 | 15 | 255 | 6.4 | 17.7 | 0.00 | 0.03 | 0.03 | 34 | 1010.7 |
| 20260503202515 | 16 | 278 | 4.8 | 11.3 | 0.00 | 0.03 | 0.03 | 33 | 1010.7 |
| 20260503201516 | 16 | 251 | 4.8 | 12.9 | 0.00 | 0.03 | 0.03 | 31 | 1010.7 |
| 20260503200516 | 16 | 259 | 4.8 | 12.9 | 0.00 | 0.03 | 0.03 | 33 | 1010.9 |
| 20260503195516 | 16 | 257 | 4.8 | 11.3 | 0.00 | 0.03 | 0.03 | 34 | 1010.9 |
| 20260503194536 | 16 | 247 | 8.0 | 14.5 | 0.00 | 0.03 | 0.03 | 30 | 1010.9 |
| 20260503193536 | 15 | 286 | 3.2 | 14.5 | 0.00 | 0.03 | 0.03 | 35 | 1011.1 |
| 20260503192517 | 16 | 266 | 6.4 | 11.3 | 0.00 | 0.03 | 0.03 | 34 | 1011.1 |
| 20260503191517 | 15 | 284 | 6.4 | 16.1 | 0.00 | 0.03 | 0.03 | 35 | 1011.1 |
| 20260503190517 | 15 | 323 | 4.8 | 12.9 | 0.00 | 0.03 | 0.03 | 36 | 1011.2 |
| 20260503185517 | 15 | 304 | 6.4 | 14.5 | 0.00 | 0.03 | 0.03 | 38 | 1011.3 |
| 20260503184517 | 15 | 284 | 6.4 | 17.7 | 0.00 | 0.03 | 0.03 | 34 | 1011.4 |
| 20260503183537 | 15 | 270 | 6.4 | 16.1 | 0.00 | 0.03 | 0.03 | 37 | 1011.6 |
| 20260503182517 | 15 | 304 | 6.4 | 20.9 | 0.00 | 0.03 | 0.03 | 37 | 1011.5 |
| 20260503181518 | 15 | 251 | 8.0 | 16.1 | 0.00 | 0.03 | 0.03 | 34 | 1011.5 |
| 20260503180538 | 15 | 250 | 8.0 | 16.1 | 0.00 | 0.03 | 0.03 | 34 | 1011.6 |
| 20260503175518 | 14 | 253 | 8.0 | 19.3 | 0.00 | 0.03 | 0.03 | 34 | 1011.5 |
| 20260503174515 | 14 | 244 | 8.0 | 24.1 | 0.00 | 0.03 | 0.03 | 37 | 1011.7 |
| 20260503173535 | 14 | 292 | 6.4 | 16.1 | 0.00 | 0.03 | 0.03 | 42 | 1011.8 |
| 20260503172536 | 14 | 319 | 4.8 | 9.7 | 0.00 | 0.03 | 0.03 | 43 | 1012.0 |
| 20260503171515 | 13 | 245 | 6.4 | 17.7 | 0.00 | 0.03 | 0.03 | 38 | 1012.0 |
| 20260503170516 | 13 | 325 | 4.8 | 14.5 | 0.00 | 0.03 | 0.03 | 42 | 1012.1 |
| 20260503150518 | 11 | 318 | 6.4 | 19.3 | 0.00 | 0.03 | 0.03 | 49 | 1012.9 |
| 20260503130517 | 10 | 349 | 4.8 | 11.3 | 0.00 | 0.03 | 0.03 | 55 | 1012.6 |
| 20260503110516 | 7 | 344 | 3.2 | 9.7 | 0.00 | 0.03 | 0.03 | 61 | 1012.1 |
| 20260503081536 | 7 | 313 | 3.2 | 11.3 | 0.00 | 0.00 | 0.00 | 52 | 1010.6 |
| 20260503080516 | 7 | 348 | 3.2 | 11.3 | 0.00 | 0.00 | 0.00 | 52 | 1010.6 |
| 20260503072516 | 8 | 280 | 1.6 | 6.4 | 0.00 | 0.00 | 0.00 | 51 | 1010.5 |
| 20260503071516 | 8 | 8 | 1.6 | 3.2 | 0.00 | 0.00 | 0.00 | 51 | 1010.5 |
| 20260503070517 | 8 | 335 | 3.2 | 6.4 | 0.00 | 0.00 | 0.00 | 50 | 1010.5 |
| 20260503054515 | 9 | 15 | 1.6 | 6.4 | 0.00 | 0.05 | 0.00 | 47 | 1010.8 |
| 20260503053516 | 9 | 329 | 3.2 | 6.4 | 0.00 | 0.05 | 0.00 | 48 | 1010.8 |
| 20260503052516 | 9 | 342 | 3.2 | 9.7 | 0.00 | 0.05 | 0.00 | 47 | 1010.8 |
| 20260503051516 | 9 | 40 | 1.6 | 4.8 | 0.00 | 0.05 | 0.00 | 46 | 1010.9 |
| 20260503050556 | 9 | 357 | 1.6 | 8.0 | 0.00 | 0.05 | 0.00 | 47 | 1010.9 |
| 20260503045517 | 10 | 270 | 1.6 | 6.4 | 0.00 | 0.05 | 0.00 | 45 | 1011.0 |
| 20260503044537 | 9 | 7 | 3.2 | 11.3 | 0.00 | 0.05 | 0.00 | 47 | 1011.0 |
| 20260503043517 | 9 | 18 | 3.2 | 11.3 | 0.00 | 0.05 | 0.00 | 49 | 1010.9 |
| 20260503042517 | 8 | 277 | 1.6 | 6.4 | 0.00 | 0.05 | 0.00 | 52 | 1011.0 |
| 20260503041517 | 8 | 261 | 1.6 | 4.8 | 0.00 | 0.05 | 0.00 | 55 | 1011.0 |
| 20260503040517 | 8 | 272 | 1.6 | 3.2 | 0.00 | 0.05 | 0.00 | 55 | 1011.1 |
| 20260503035518 | 8 | 265 | 0.0 | 1.6 | 0.00 | 0.05 | 0.05 | 55 | 1011.1 |
| 20260503034517 | 8 | 261 | 1.6 | 4.8 | 0.00 | 0.05 | 0.05 | 56 | 1011.1 |
| 20260503033518 | 8 | 263 | 1.6 | 3.2 | 0.00 | 0.05 | 0.05 | 52 | 1011.1 |
| 20260503032518 | 8 | 292 | 1.6 | 3.2 | 0.00 | 0.05 | 0.05 | 52 | 1011.1 |
| 20260503031518 | 8 | 282 | 1.6 | 3.2 | 0.00 | 0.05 | 0.05 | 51 | 1011.2 |
| 20260503030518 | 8 | 329 | 1.6 | 3.2 | 0.00 | 0.05 | 0.05 | 51 | 1011.2 |
| 20260503025515 | 9 | 350 | 1.6 | 3.2 | 0.00 | 0.05 | 0.05 | 50 | 1011.3 |
| 20260503024516 | 10 | 329 | 1.6 | 3.2 | 0.00 | 0.05 | 0.05 | 46 | 1011.3 |
| 20260503023515 | 10 | 359 | 1.6 | 3.2 | 0.00 | 0.05 | 0.05 | 44 | 1011.3 |
| 20260503022536 | 11 | 326 | 1.6 | 4.8 | 0.00 | 0.05 | 0.05 | 42 | 1011.2 |
| 20260503021536 | 11 | 360 | 1.6 | 4.8 | 0.00 | 0.05 | 0.05 | 42 | 1011.2 |
| 20260503020516 | 11 | 8 | 1.6 | 6.4 | 0.00 | 0.05 | 0.05 | 42 | 1011.2 |
| 20260503015517 | 11 | 345 | 3.2 | 8.0 | 0.00 | 0.05 | 0.05 | 43 | 1011.2 |
| 20260503014516 | 11 | 1 | 1.6 | 4.8 | 0.00 | 0.05 | 0.05 | 43 | 1011.1 |
| 20260503013517 | 11 | 323 | 1.6 | 3.2 | 0.00 | 0.05 | 0.05 | 43 | 1011.3 |
| 20260503012517 | 11 | 352 | 1.6 | 4.8 | 0.00 | 0.05 | 0.05 | 45 | 1011.3 |
| 20260503011517 | 11 | 300 | 1.6 | 4.8 | 0.00 | 0.05 | 0.05 | 46 | 1011.2 |
| 20260503010517 | 11 | 6 | 1.6 | 4.8 | 0.00 | 0.05 | 0.05 | 47 | 1011.1 |
| 20260503005517 | 11 | 355 | 0.0 | 3.2 | 0.00 | 0.05 | 0.05 | 47 | 1011.0 |
| 20260503004517 | 11 | 5 | 1.6 | 1.6 | 0.00 | 0.05 | 0.05 | 41 | 1010.7 |
| 20260503003517 | 12 | 346 | 1.6 | 3.2 | 0.00 | 0.05 | 0.05 | 40 | 1010.7 |
| 20260503002518 | 12 | 344 | 1.6 | 4.8 | 0.00 | 0.05 | 0.05 | 42 | 1010.6 |
| 20260503001515 | 12 | 28 | 1.6 | 4.8 | 0.00 | 0.05 | 0.05 | 44 | 1010.6 |
| 20260503000518 | 12 | 326 | 1.6 | 4.8 | 0.00 | 0.05 | 0.05 | 44 | 1010.5 |
| 20260502235516 | 12 | 336 | 1.6 | 3.2 | 0.00 | 0.05 | 0.05 | 45 | 1010.4 |
| 20260502234515 | 12 | 327 | 0.0 | 1.6 | 0.00 | 0.05 | 0.05 | 43 | 1010.4 |
| 20260502233516 | 13 | 359 | 1.6 | 3.2 | 0.00 | 0.05 | 0.05 | 40 | 1010.5 |
| 20260502232516 | 13 | 343 | 1.6 | 3.2 | 0.00 | 0.05 | 0.05 | 41 | 1010.4 |
| 20260502231516 | 13 | 348 | 1.6 | 8.0 | 0.00 | 0.05 | 0.05 | 40 | 1010.4 |
| 20260502230516 | 14 | 351 | 1.6 | 6.4 | 0.00 | 0.05 | 0.05 | 40 | 1010.4 |